contact:dominique.lefevre@mio.osupytheas.fr, maurice.libes@osupytheas.fr, didier.mallarino@osupytheas.fr
Project:EMSO http://www.emso-fr.org/EMSO-France
Depth: 2436.0 m
Title:EMSO Ligure Ouest : Data MII capteur OXYGEN
DateTime,Latitude,Longitude,Optode-Type,Optode_Serial,Oxygen,Saturation_Oxygen,Temperature
DateTime,Latitude,Longitude,Optode-Type,Optode_Serial,µmol.l-1,%,degC
2019-06-26T00:00:52,42.805,6.029,4330,1995,192.833,58.975,13.291
2019-06-26T00:03:52,42.805,6.029,4330,1995,192.834,58.978,13.293
2019-06-26T00:06:52,42.805,6.029,4330,1995,192.785,58.961,13.292
2019-06-26T00:09:52,42.805,6.029,4330,1995,192.755,58.953,13.292
2019-06-26T00:12:51,42.805,6.029,4330,1995,192.815,58.971,13.292
2019-06-26T00:15:51,42.805,6.029,4330,1995,192.741,58.949,13.293
2019-06-26T00:18:51,42.805,6.029,4330,1995,192.738,58.948,13.293
2019-06-26T00:21:51,42.805,6.029,4330,1995,192.746,58.951,13.293
2019-06-26T00:24:51,42.805,6.029,4330,1995,192.728,58.944,13.292
2019-06-26T00:27:51,42.805,6.029,4330,1995,192.720,58.942,13.293
2019-06-26T00:30:51,42.805,6.029,4330,1995,192.811,58.970,13.292
2019-06-26T00:33:51,42.805,6.029,4330,1995,192.816,58.972,13.292
2019-06-26T00:42:51,42.805,6.029,4330,1995,192.669,58.921,13.288
2019-06-26T00:45:51,42.805,6.029,4330,1995,192.703,58.934,13.290
2019-06-26T00:48:51,42.805,6.029,4330,1995,192.757,58.952,13.291
2019-06-26T00:51:51,42.805,6.029,4330,1995,192.735,58.945,13.291
2019-06-26T00:54:51,42.805,6.029,4330,1995,192.784,58.960,13.291
2019-06-26T00:57:51,42.805,6.029,4330,1995,192.754,58.953,13.292
2019-06-26T01:00:51,42.805,6.029,4330,1995,192.690,58.931,13.291
2019-06-26T01:03:51,42.805,6.029,4330,1995,192.712,58.939,13.291
2019-06-26T01:06:51,42.805,6.029,4330,1995,192.722,58.942,13.292
2019-06-26T01:09:51,42.805,6.029,4330,1995,192.712,58.939,13.292
2019-06-26T01:12:51,42.805,6.029,4330,1995,192.762,58.954,13.292
2019-06-26T01:15:51,42.805,6.029,4330,1995,192.722,58.942,13.292
2019-06-26T01:18:51,42.805,6.029,4330,1995,192.750,58.952,13.293
2019-06-26T01:21:51,42.805,6.029,4330,1995,192.721,58.944,13.294
2019-06-26T01:24:51,42.805,6.029,4330,1995,192.722,58.944,13.293
2019-06-26T01:27:51,42.805,6.029,4330,1995,192.762,58.957,13.294
2019-06-26T01:30:51,42.805,6.029,4330,1995,192.660,58.924,13.292
2019-06-26T01:33:51,42.805,6.029,4330,1995,192.692,58.934,13.293
2019-06-26T01:36:51,42.805,6.029,4330,1995,192.774,58.960,13.293
2019-06-26T01:39:51,42.805,6.029,4330,1995,192.659,58.924,13.293
2019-06-26T01:42:51,42.805,6.029,4330,1995,192.679,58.931,13.293
2019-06-26T01:45:51,42.805,6.029,4330,1995,192.654,58.922,13.293
2019-06-26T01:48:51,42.805,6.029,4330,1995,192.627,58.914,13.293
2019-06-26T01:51:51,42.805,6.029,4330,1995,192.583,58.901,13.293
2019-06-26T01:54:51,42.805,6.029,4330,1995,192.647,58.920,13.292
2019-06-26T01:57:51,42.805,6.029,4330,1995,192.650,58.921,13.293
2019-06-26T02:00:51,42.805,6.029,4330,1995,192.661,58.924,13.292
2019-06-26T02:03:51,42.805,6.029,4330,1995,192.660,58.923,13.292
2019-06-26T02:06:51,42.805,6.029,4330,1995,192.523,58.884,13.294
2019-06-26T02:09:51,42.805,6.029,4330,1995,192.512,58.877,13.291
2019-06-26T02:12:51,42.805,6.029,4330,1995,192.483,58.868,13.291
2019-06-26T02:15:51,42.805,6.029,4330,1995,192.495,58.871,13.290
2019-06-26T02:18:51,42.805,6.029,4330,1995,192.561,58.892,13.291
2019-06-26T02:21:51,42.805,6.029,4330,1995,192.572,58.894,13.290
2019-06-26T02:24:51,42.805,6.029,4330,1995,192.573,58.894,13.290
2019-06-26T02:27:51,42.805,6.029,4330,1995,192.633,58.912,13.290
2019-06-26T02:30:51,42.805,6.029,4330,1995,192.719,58.939,13.290
2019-06-26T02:33:51,42.805,6.029,4330,1995,192.689,58.930,13.290
2019-06-26T02:36:51,42.805,6.029,4330,1995,192.684,58.929,13.291
2019-06-26T02:39:51,42.805,6.029,4330,1995,192.652,58.919,13.290
2019-06-26T02:42:51,42.805,6.029,4330,1995,192.628,58.912,13.291
2019-06-26T02:45:51,42.805,6.029,4330,1995,192.568,58.894,13.291
2019-06-26T02:48:51,42.805,6.029,4330,1995,192.519,58.879,13.291
2019-06-26T02:51:51,42.805,6.029,4330,1995,192.544,58.889,13.293
2019-06-26T02:54:51,42.805,6.029,4330,1995,192.407,58.851,13.296
2019-06-26T02:57:51,42.805,6.029,4330,1995,192.280,58.809,13.294
2019-06-26T03:00:51,42.805,6.029,4330,1995,192.297,58.814,13.293
2019-06-26T03:03:51,42.805,6.029,4330,1995,192.300,58.814,13.292
2019-06-26T03:06:51,42.805,6.029,4330,1995,192.287,58.809,13.292
2019-06-26T03:09:51,42.805,6.029,4330,1995,192.375,58.837,13.292
2019-06-26T03:15:51,42.805,6.029,4330,1995,192.359,58.827,13.289
2019-06-26T03:18:51,42.805,6.029,4330,1995,192.301,58.810,13.289
2019-06-26T03:21:51,42.805,6.029,4330,1995,192.270,58.804,13.292
2019-06-26T03:24:51,42.805,6.029,4330,1995,192.350,58.827,13.291
2019-06-26T03:27:51,42.805,6.029,4330,1995,192.239,58.793,13.291
2019-06-26T03:30:51,42.805,6.029,4330,1995,192.361,58.831,13.291
2019-06-26T03:33:51,42.805,6.029,4330,1995,192.314,58.817,13.292
2019-06-26T03:36:51,42.805,6.029,4330,1995,192.188,58.784,13.296
2019-06-26T03:39:51,42.805,6.029,4330,1995,192.174,58.775,13.292
2019-06-26T03:42:51,42.805,6.029,4330,1995,192.105,58.754,13.292
2019-06-26T03:45:51,42.805,6.029,4330,1995,192.118,58.759,13.293
2019-06-26T03:48:51,42.805,6.029,4330,1995,192.090,58.752,13.294
2019-06-26T03:51:51,42.805,6.029,4330,1995,192.032,58.735,13.295
2019-06-26T03:54:51,42.805,6.029,4330,1995,191.867,58.689,13.298
2019-06-26T03:57:51,42.805,6.029,4330,1995,191.752,58.651,13.296
2019-06-26T04:00:51,42.805,6.029,4330,1995,191.701,58.632,13.293
2019-06-26T04:03:51,42.805,6.029,4330,1995,191.610,58.606,13.295
2019-06-26T04:06:51,42.805,6.029,4330,1995,191.867,58.682,13.293
2019-06-26T04:09:51,42.805,6.029,4330,1995,191.939,58.704,13.293
2019-06-26T04:12:51,42.805,6.029,4330,1995,191.950,58.710,13.295
2019-06-26T04:15:51,42.805,6.029,4330,1995,192.008,58.727,13.295
2019-06-26T04:18:51,42.805,6.029,4330,1995,191.904,58.698,13.296
2019-06-26T04:21:51,42.805,6.029,4330,1995,191.676,58.631,13.298
2019-06-26T04:24:51,42.805,6.029,4330,1995,191.522,58.579,13.295
2019-06-26T04:27:51,42.805,6.029,4330,1995,191.582,58.596,13.294
2019-06-26T04:30:51,42.805,6.029,4330,1995,191.672,58.624,13.294
2019-06-26T04:33:51,42.805,6.029,4330,1995,191.695,58.632,13.295
2019-06-26T04:36:51,42.805,6.029,4330,1995,191.758,58.650,13.294
2019-06-26T04:39:51,42.805,6.029,4330,1995,191.971,58.716,13.295
2019-06-26T04:42:51,42.805,6.029,4330,1995,191.936,58.705,13.295
2019-06-26T04:45:51,42.805,6.029,4330,1995,192.052,58.741,13.295
2019-06-26T04:48:51,42.805,6.029,4330,1995,192.027,58.733,13.294
2019-06-26T04:51:51,42.805,6.029,4330,1995,192.114,58.761,13.296
2019-06-26T04:54:51,42.805,6.029,4330,1995,192.050,58.742,13.296
2019-06-26T04:57:51,42.805,6.029,4330,1995,192.032,58.738,13.297
2019-06-26T05:00:51,42.805,6.029,4330,1995,191.858,58.682,13.295
2019-06-26T05:03:51,42.805,6.029,4330,1995,191.835,58.674,13.294
2019-06-26T05:06:51,42.805,6.029,4330,1995,192.030,58.734,13.295
2019-06-26T05:09:51,42.805,6.029,4330,1995,192.017,58.730,13.294
2019-06-26T05:12:51,42.805,6.029,4330,1995,191.857,58.680,13.294
2019-06-26T05:15:51,42.805,6.029,4330,1995,191.865,58.683,13.294
2019-06-26T05:18:51,42.805,6.029,4330,1995,191.660,58.621,13.294
2019-06-26T05:21:51,42.805,6.029,4330,1995,191.658,58.618,13.293
2019-06-26T05:24:51,42.805,6.029,4330,1995,191.721,58.638,13.293
2019-06-26T05:27:51,42.805,6.029,4330,1995,191.655,58.616,13.292
2019-06-26T05:30:51,42.805,6.029,4330,1995,191.728,58.638,13.292
2019-06-26T05:33:51,42.805,6.029,4330,1995,191.763,58.649,13.292
2019-06-26T05:36:51,42.805,6.029,4330,1995,191.874,58.684,13.293
2019-06-26T05:39:51,42.805,6.029,4330,1995,191.814,58.666,13.293
2019-06-26T05:42:51,42.805,6.029,4330,1995,191.593,58.599,13.294
2019-06-26T05:45:51,42.805,6.029,4330,1995,191.665,58.619,13.292
2019-06-26T05:51:51,42.805,6.029,4330,1995,191.890,58.684,13.289
2019-06-26T05:54:51,42.805,6.029,4330,1995,191.922,58.698,13.292
2019-06-26T05:57:51,42.805,6.029,4330,1995,191.945,58.708,13.294
2019-06-26T06:00:51,42.805,6.029,4330,1995,191.985,58.719,13.294
2019-06-26T06:03:51,42.805,6.029,4330,1995,192.070,58.744,13.293
2019-06-26T06:06:51,42.805,6.029,4330,1995,192.137,58.766,13.294
2019-06-26T06:09:51,42.805,6.029,4330,1995,192.165,58.778,13.296
2019-06-26T06:12:51,42.805,6.029,4330,1995,192.101,58.762,13.299
2019-06-26T06:15:51,42.805,6.029,4330,1995,191.858,58.684,13.297
2019-06-26T06:18:51,42.805,6.029,4330,1995,191.749,58.651,13.297
2019-06-26T06:21:51,42.805,6.029,4330,1995,191.559,58.591,13.295
2019-06-26T06:24:51,42.805,6.029,4330,1995,191.497,58.570,13.294
2019-06-26T06:27:51,42.805,6.029,4330,1995,191.616,58.609,13.296
2019-06-26T06:30:51,42.805,6.029,4330,1995,191.665,58.625,13.296
2019-06-26T06:33:51,42.805,6.029,4330,1995,191.545,58.587,13.296
2019-06-26T06:36:51,42.805,6.029,4330,1995,191.454,58.558,13.295
2019-06-26T06:39:51,42.805,6.029,4330,1995,191.369,58.532,13.295
2019-06-26T06:42:51,42.805,6.029,4330,1995,191.311,58.514,13.295
2019-06-26T06:45:51,42.805,6.029,4330,1995,191.185,58.475,13.294
2019-06-26T06:48:51,42.805,6.029,4330,1995,191.278,58.500,13.291
2019-06-26T06:51:51,42.805,6.029,4330,1995,191.593,58.597,13.292
2019-06-26T06:54:51,42.805,6.029,4330,1995,192.059,58.738,13.291
2019-06-26T06:57:51,42.805,6.029,4330,1995,191.897,58.690,13.292
2019-06-26T07:00:51,42.805,6.029,4330,1995,191.712,58.638,13.295
2019-06-26T07:03:51,42.805,6.029,4330,1995,191.540,58.586,13.296
2019-06-26T07:06:51,42.805,6.029,4330,1995,191.833,58.675,13.296
2019-06-26T07:09:51,42.805,6.029,4330,1995,191.619,58.609,13.295
2019-06-26T07:12:51,42.805,6.029,4330,1995,191.861,58.681,13.294
2019-06-26T07:15:51,42.805,6.029,4330,1995,191.838,58.678,13.297
2019-06-26T07:18:51,42.805,6.029,4330,1995,191.814,58.672,13.297
2019-06-26T07:21:51,42.805,6.029,4330,1995,191.552,58.588,13.295
2019-06-26T07:24:51,42.805,6.029,4330,1995,191.481,58.569,13.297
2019-06-26T07:27:51,42.805,6.029,4330,1995,191.394,58.542,13.296
2019-06-26T07:30:51,42.805,6.029,4330,1995,191.144,58.467,13.298
2019-06-26T07:33:51,42.805,6.029,4330,1995,191.367,58.536,13.298
2019-06-26T07:36:51,42.805,6.029,4330,1995,191.341,58.530,13.299
2019-06-26T07:39:51,42.805,6.029,4330,1995,191.273,58.507,13.298
2019-06-26T07:42:51,42.805,6.029,4330,1995,191.287,58.514,13.300
2019-06-26T07:45:51,42.805,6.029,4330,1995,191.292,58.514,13.299
2019-06-26T07:48:51,42.805,6.029,4330,1995,191.170,58.475,13.298
2019-06-26T07:51:51,42.805,6.029,4330,1995,191.409,58.549,13.298
2019-06-26T07:54:51,42.805,6.029,4330,1995,191.401,58.547,13.298
2019-06-26T07:57:51,42.805,6.029,4330,1995,191.384,58.543,13.299
2019-06-26T08:00:51,42.805,6.029,4330,1995,191.513,58.579,13.297
2019-06-26T08:03:51,42.805,6.029,4330,1995,191.482,58.570,13.298
2019-06-26T08:06:51,42.805,6.029,4330,1995,191.505,58.578,13.298
2019-06-26T08:09:51,42.805,6.029,4330,1995,191.429,58.554,13.298
2019-06-26T08:12:51,42.805,6.029,4330,1995,191.478,58.569,13.298
2019-06-26T08:15:51,42.805,6.029,4330,1995,191.382,58.537,13.295
2019-06-26T08:18:51,42.805,6.029,4330,1995,191.375,58.535,13.296
2019-06-26T08:27:51,42.805,6.029,4330,1995,191.442,58.547,13.289
2019-06-26T08:30:51,42.805,6.029,4330,1995,191.505,58.569,13.291
2019-06-26T08:33:51,42.805,6.029,4330,1995,191.694,58.629,13.293
2019-06-26T08:36:51,42.805,6.029,4330,1995,191.635,58.611,13.293
2019-06-26T08:39:51,42.805,6.029,4330,1995,191.468,58.561,13.294
2019-06-26T08:42:51,42.805,6.029,4330,1995,191.542,58.581,13.292
2019-06-26T08:45:51,42.805,6.029,4330,1995,191.661,58.621,13.295
2019-06-26T08:48:51,42.805,6.029,4330,1995,191.549,58.587,13.295
2019-06-26T08:51:51,42.805,6.029,4330,1995,191.533,58.585,13.296
2019-06-26T08:54:51,42.805,6.029,4330,1995,191.333,58.521,13.295
2019-06-26T08:57:51,42.805,6.029,4330,1995,191.567,58.596,13.298
2019-06-26T09:00:51,42.805,6.029,4330,1995,191.533,58.583,13.295
2019-06-26T09:03:51,42.805,6.029,4330,1995,191.489,58.569,13.295
2019-06-26T09:06:51,42.805,6.029,4330,1995,191.688,58.632,13.296
2019-06-26T09:09:51,42.805,6.029,4330,1995,191.881,58.689,13.295
2019-06-26T09:12:51,42.805,6.029,4330,1995,191.651,58.617,13.294
2019-06-26T09:15:51,42.805,6.029,4330,1995,191.703,58.636,13.296
2019-06-26T09:18:51,42.805,6.029,4330,1995,191.750,58.649,13.295
2019-06-26T09:21:51,42.805,6.029,4330,1995,191.674,58.626,13.295
2019-06-26T09:24:51,42.805,6.029,4330,1995,191.747,58.646,13.293
2019-06-26T09:27:51,42.805,6.029,4330,1995,191.795,58.661,13.294
2019-06-26T09:30:51,42.805,6.029,4330,1995,191.671,58.625,13.295
2019-06-26T09:33:51,42.805,6.029,4330,1995,191.715,58.637,13.294
2019-06-26T09:36:51,42.805,6.029,4330,1995,191.720,58.637,13.293
2019-06-26T09:39:51,42.805,6.029,4330,1995,191.686,58.629,13.295
2019-06-26T09:42:51,42.805,6.029,4330,1995,191.594,58.600,13.294
2019-06-26T09:45:51,42.805,6.029,4330,1995,191.664,58.620,13.293
2019-06-26T09:48:51,42.805,6.029,4330,1995,191.704,58.632,13.293
2019-06-26T09:51:51,42.805,6.029,4330,1995,191.720,58.639,13.294
2019-06-26T09:54:51,42.805,6.029,4330,1995,191.703,58.632,13.293
2019-06-26T09:57:51,42.805,6.029,4330,1995,191.681,58.626,13.294
2019-06-26T10:00:51,42.805,6.029,4330,1995,191.841,58.674,13.293
2019-06-26T10:03:51,42.805,6.029,4330,1995,192.007,58.724,13.292
2019-06-26T10:06:51,42.805,6.029,4330,1995,191.849,58.675,13.292
2019-06-26T10:09:51,42.805,6.029,4330,1995,191.669,58.619,13.291
2019-06-26T10:12:51,42.805,6.029,4330,1995,191.756,58.646,13.292
2019-06-26T10:15:51,42.805,6.029,4330,1995,191.692,58.629,13.294
2019-06-26T10:18:51,42.805,6.029,4330,1995,191.766,58.649,13.292
2019-06-26T10:21:51,42.805,6.029,4330,1995,191.965,58.711,13.292
2019-06-26T10:24:51,42.805,6.029,4330,1995,191.765,58.649,13.292
2019-06-26T10:27:51,42.805,6.029,4330,1995,191.644,58.614,13.293
2019-06-26T10:30:51,42.805,6.029,4330,1995,191.614,58.606,13.294
2019-06-26T10:33:51,42.805,6.029,4330,1995,191.644,58.617,13.295
2019-06-26T10:36:51,42.805,6.029,4330,1995,191.460,58.557,13.293
2019-06-26T10:39:51,42.805,6.029,4330,1995,191.502,58.571,13.294
2019-06-26T10:42:51,42.805,6.029,4330,1995,191.560,58.591,13.295
2019-06-26T10:45:51,42.805,6.029,4330,1995,191.622,58.611,13.296
2019-06-26T10:48:51,42.805,6.029,4330,1995,191.676,58.625,13.294
2019-06-26T10:51:51,42.805,6.029,4330,1995,191.686,58.630,13.295
2019-06-26T10:54:51,42.805,6.029,4330,1995,191.696,58.632,13.295
2019-06-26T11:00:51,42.805,6.029,4330,1995,191.574,58.594,13.294
2019-06-26T11:03:51,42.805,6.029,4330,1995,191.517,58.575,13.293
2019-06-26T11:06:51,42.805,6.029,4330,1995,191.694,58.631,13.294
2019-06-26T11:09:51,42.805,6.029,4330,1995,191.485,58.568,13.295
2019-06-26T11:12:51,42.805,6.029,4330,1995,191.345,58.524,13.294
2019-06-26T11:15:51,42.805,6.029,4330,1995,191.340,58.524,13.295
2019-06-26T11:18:51,42.805,6.029,4330,1995,191.284,58.505,13.294
2019-06-26T11:21:51,42.805,6.029,4330,1995,191.167,58.471,13.296
2019-06-26T11:24:51,42.805,6.029,4330,1995,191.180,58.474,13.295
2019-06-26T11:27:51,42.805,6.029,4330,1995,191.150,58.469,13.297
2019-06-26T11:30:51,42.805,6.029,4330,1995,191.260,58.504,13.299
2019-06-26T11:33:51,42.805,6.029,4330,1995,191.281,58.507,13.296
2019-06-26T11:36:51,42.805,6.029,4330,1995,191.233,58.494,13.298
2019-06-26T11:39:51,42.805,6.029,4330,1995,191.244,58.495,13.296
2019-06-26T11:42:51,42.805,6.029,4330,1995,191.236,58.491,13.295
2019-06-26T11:45:51,42.805,6.029,4330,1995,191.283,58.505,13.294
2019-06-26T11:48:51,42.805,6.029,4330,1995,191.407,58.542,13.293
2019-06-26T11:51:51,42.805,6.029,4330,1995,191.447,58.559,13.297
2019-06-26T11:54:51,42.805,6.029,4330,1995,191.479,58.567,13.296
2019-06-26T11:57:51,42.805,6.029,4330,1995,191.340,58.525,13.296
2019-06-26T12:00:51,42.805,6.029,4330,1995,191.368,58.536,13.298
2019-06-26T12:03:51,42.805,6.029,4330,1995,191.316,58.517,13.296
2019-06-26T12:06:51,42.805,6.029,4330,1995,191.550,58.592,13.298
2019-06-26T12:09:51,42.805,6.029,4330,1995,191.385,58.542,13.299
2019-06-26T12:12:51,42.805,6.029,4330,1995,191.276,58.510,13.300
2019-06-26T12:15:51,42.805,6.029,4330,1995,191.037,58.435,13.298
2019-06-26T12:18:51,42.805,6.029,4330,1995,191.045,58.438,13.298
2019-06-26T12:21:51,42.805,6.029,4330,1995,191.208,58.488,13.299
2019-06-26T12:24:51,42.805,6.029,4330,1995,191.149,58.475,13.303
2019-06-26T12:27:51,42.805,6.029,4330,1995,191.371,58.538,13.299
2019-06-26T12:30:51,42.805,6.029,4330,1995,191.421,58.557,13.302
2019-06-26T12:33:51,42.805,6.029,4330,1995,191.399,58.550,13.301
2019-06-26T12:36:51,42.805,6.029,4330,1995,191.440,58.559,13.299
2019-06-26T12:39:51,42.805,6.029,4330,1995,191.482,58.575,13.301
2019-06-26T12:42:51,42.805,6.029,4330,1995,191.495,58.577,13.300
2019-06-26T12:45:51,42.805,6.029,4330,1995,191.506,58.582,13.301
2019-06-26T12:48:51,42.805,6.029,4330,1995,191.467,58.573,13.303
2019-06-26T12:51:51,42.805,6.029,4330,1995,191.415,58.555,13.302
2019-06-26T12:54:51,42.805,6.029,4330,1995,191.458,58.571,13.304
2019-06-26T12:57:51,42.805,6.029,4330,1995,191.275,58.515,13.303
2019-06-26T13:00:51,42.805,6.029,4330,1995,191.353,58.535,13.301
2019-06-26T13:03:51,42.805,6.029,4330,1995,191.507,58.582,13.301
2019-06-26T13:06:51,42.805,6.029,4330,1995,191.543,58.596,13.303
2019-06-26T13:09:51,42.805,6.029,4330,1995,191.416,58.558,13.304
2019-06-26T13:12:51,42.805,6.029,4330,1995,191.356,58.540,13.303
2019-06-26T13:15:51,42.805,6.029,4330,1995,191.413,58.553,13.300
2019-06-26T13:18:51,42.805,6.029,4330,1995,191.545,58.596,13.302
2019-06-26T13:21:51,42.805,6.029,4330,1995,191.434,58.562,13.303
2019-06-26T13:24:51,42.805,6.029,4330,1995,191.388,58.545,13.300
2019-06-26T13:27:51,42.805,6.029,4330,1995,191.394,58.554,13.305
2019-06-26T13:30:51,42.805,6.029,4330,1995,191.142,58.475,13.304
2019-06-26T13:36:51,42.805,6.029,4330,1995,191.029,58.431,13.297
2019-06-26T13:39:51,42.805,6.029,4330,1995,190.996,58.426,13.301
2019-06-26T13:42:51,42.805,6.029,4330,1995,190.901,58.405,13.307
2019-06-26T13:45:51,42.805,6.029,4330,1995,190.766,58.367,13.310
2019-06-26T13:48:51,42.805,6.029,4330,1995,190.797,58.374,13.308
2019-06-26T13:51:51,42.805,6.029,4330,1995,190.605,58.316,13.308
2019-06-26T13:54:51,42.805,6.029,4330,1995,190.460,58.271,13.308
2019-06-26T13:57:51,42.805,6.029,4330,1995,190.410,58.255,13.307
2019-06-26T14:00:51,42.805,6.029,4330,1995,190.224,58.194,13.304
2019-06-26T14:03:51,42.805,6.029,4330,1995,190.442,58.264,13.307
2019-06-26T14:06:51,42.805,6.029,4330,1995,190.483,58.273,13.304
2019-06-26T14:09:51,42.805,6.029,4330,1995,190.554,58.292,13.301
2019-06-26T14:12:51,42.805,6.029,4330,1995,190.703,58.336,13.300
2019-06-26T14:15:51,42.805,6.029,4330,1995,190.866,58.384,13.299
2019-06-26T14:18:51,42.805,6.029,4330,1995,191.120,58.461,13.298
2019-06-26T14:21:51,42.805,6.029,4330,1995,191.306,58.515,13.297
2019-06-26T14:24:51,42.805,6.029,4330,1995,191.353,58.531,13.298
2019-06-26T14:27:51,42.805,6.029,4330,1995,191.441,58.560,13.299
2019-06-26T14:30:51,42.805,6.029,4330,1995,191.695,58.636,13.298
2019-06-26T14:33:51,42.805,6.029,4330,1995,191.844,58.681,13.297
2019-06-26T14:36:51,42.805,6.029,4330,1995,192.005,58.730,13.297
2019-06-26T14:39:51,42.805,6.029,4330,1995,192.030,58.736,13.296
2019-06-26T14:42:51,42.805,6.029,4330,1995,192.129,58.767,13.296
2019-06-26T14:45:51,42.805,6.029,4330,1995,192.092,58.756,13.297
2019-06-26T14:48:51,42.805,6.029,4330,1995,192.126,58.766,13.297
2019-06-26T14:51:51,42.805,6.029,4330,1995,192.253,58.805,13.297
2019-06-26T14:54:51,42.805,6.029,4330,1995,192.319,58.825,13.297
2019-06-26T14:57:51,42.805,6.029,4330,1995,192.404,58.850,13.295
2019-06-26T15:00:51,42.805,6.029,4330,1995,192.448,58.864,13.296
2019-06-26T15:03:51,42.805,6.029,4330,1995,192.480,58.873,13.296
2019-06-26T15:06:51,42.805,6.029,4330,1995,192.599,58.908,13.295
2019-06-26T15:09:51,42.805,6.029,4330,1995,192.585,58.906,13.296
2019-06-26T15:12:51,42.805,6.029,4330,1995,192.574,58.901,13.295
2019-06-26T15:15:51,42.805,6.029,4330,1995,192.547,58.893,13.295
2019-06-26T15:18:51,42.805,6.029,4330,1995,192.513,58.883,13.295
2019-06-26T15:21:51,42.805,6.029,4330,1995,192.424,58.856,13.296
2019-06-26T15:24:51,42.805,6.029,4330,1995,192.562,58.898,13.296
2019-06-26T15:27:51,42.805,6.029,4330,1995,192.632,58.920,13.296
2019-06-26T15:30:51,42.805,6.029,4330,1995,192.575,58.902,13.296
2019-06-26T15:33:51,42.805,6.029,4330,1995,192.548,58.894,13.296
2019-06-26T15:36:51,42.805,6.029,4330,1995,192.544,58.894,13.297
2019-06-26T15:39:51,42.805,6.029,4330,1995,192.539,58.891,13.295
2019-06-26T15:42:51,42.805,6.029,4330,1995,192.590,58.907,13.296
2019-06-26T15:45:51,42.805,6.029,4330,1995,192.659,58.929,13.297
2019-06-26T15:48:51,42.805,6.029,4330,1995,192.681,58.935,13.296
2019-06-26T15:51:51,42.805,6.029,4330,1995,192.676,58.934,13.297
2019-06-26T15:54:51,42.805,6.029,4330,1995,192.669,58.932,13.296
2019-06-26T15:57:51,42.805,6.029,4330,1995,192.654,58.927,13.296
2019-06-26T16:00:51,42.805,6.029,4330,1995,192.642,58.924,13.296
2019-06-26T16:03:51,42.805,6.029,4330,1995,192.598,58.911,13.297
2019-06-26T16:12:51,42.805,6.029,4330,1995,192.559,58.889,13.290
2019-06-26T16:15:51,42.805,6.029,4330,1995,192.499,58.875,13.293
2019-06-26T16:18:51,42.805,6.029,4330,1995,192.445,58.862,13.295
2019-06-26T16:21:51,42.805,6.029,4330,1995,192.495,58.875,13.294
2019-06-26T16:24:51,42.805,6.029,4330,1995,192.462,58.869,13.297
2019-06-26T16:27:51,42.805,6.029,4330,1995,192.451,58.863,13.295
2019-06-26T16:30:51,42.805,6.029,4330,1995,192.467,58.869,13.295
2019-06-26T16:33:51,42.805,6.029,4330,1995,192.434,58.860,13.296
2019-06-26T16:36:51,42.805,6.029,4330,1995,192.458,58.865,13.295
2019-06-26T16:39:51,42.805,6.029,4330,1995,192.373,58.840,13.295
2019-06-26T16:42:51,42.805,6.029,4330,1995,192.364,58.838,13.296
2019-06-26T16:45:51,42.805,6.029,4330,1995,192.338,58.829,13.295
2019-06-26T16:48:51,42.805,6.029,4330,1995,192.367,58.838,13.296
2019-06-26T16:51:51,42.805,6.029,4330,1995,192.449,58.864,13.296
2019-06-26T16:54:51,42.805,6.029,4330,1995,192.364,58.839,13.296
2019-06-26T16:57:51,42.805,6.029,4330,1995,192.280,58.813,13.296
2019-06-26T17:00:51,42.805,6.029,4330,1995,192.211,58.792,13.296
2019-06-26T17:03:51,42.805,6.029,4330,1995,192.236,58.799,13.296
2019-06-26T17:06:51,42.805,6.029,4330,1995,192.239,58.799,13.295
2019-06-26T17:09:51,42.805,6.029,4330,1995,192.137,58.768,13.295
2019-06-26T17:12:51,42.805,6.029,4330,1995,192.112,58.760,13.296
2019-06-26T17:15:51,42.805,6.029,4330,1995,192.102,58.758,13.296
2019-06-26T17:18:51,42.805,6.029,4330,1995,192.092,58.754,13.295
2019-06-26T17:21:51,42.805,6.029,4330,1995,192.144,58.769,13.294
2019-06-26T17:24:51,42.805,6.029,4330,1995,192.148,58.773,13.296
2019-06-26T17:27:51,42.805,6.029,4330,1995,192.141,58.769,13.296
2019-06-26T17:30:51,42.805,6.029,4330,1995,192.149,58.771,13.295
2019-06-26T17:33:51,42.805,6.029,4330,1995,192.071,58.746,13.294
2019-06-26T17:36:51,42.805,6.029,4330,1995,192.116,58.759,13.294
2019-06-26T17:39:51,42.805,6.029,4330,1995,192.090,58.753,13.295
2019-06-26T17:42:51,42.805,6.029,4330,1995,192.031,58.733,13.293
2019-06-26T17:45:51,42.805,6.029,4330,1995,192.058,58.742,13.294
2019-06-26T17:48:51,42.805,6.029,4330,1995,192.010,58.727,13.294
2019-06-26T17:51:51,42.805,6.029,4330,1995,192.077,58.749,13.295
2019-06-26T17:54:51,42.805,6.029,4330,1995,192.042,58.736,13.293
2019-06-26T17:57:51,42.805,6.029,4330,1995,192.125,58.760,13.293
2019-06-26T18:00:51,42.805,6.029,4330,1995,191.998,58.723,13.293
2019-06-26T18:03:51,42.805,6.029,4330,1995,192.007,58.726,13.294
2019-06-26T18:06:51,42.805,6.029,4330,1995,192.007,58.726,13.294
2019-06-26T18:09:51,42.805,6.029,4330,1995,191.977,58.716,13.293
2019-06-26T18:12:50,42.805,6.029,4330,1995,191.785,58.661,13.296
2019-06-26T18:15:51,42.805,6.029,4330,1995,191.669,58.630,13.299
2019-06-26T18:18:51,42.805,6.029,4330,1995,191.701,58.637,13.297
2019-06-26T18:21:51,42.805,6.029,4330,1995,191.632,58.615,13.297
2019-06-26T18:24:51,42.805,6.029,4330,1995,191.611,58.610,13.298
2019-06-26T18:27:51,42.805,6.029,4330,1995,191.613,58.613,13.300
2019-06-26T18:30:51,42.805,6.029,4330,1995,191.594,58.605,13.298
2019-06-26T18:33:51,42.805,6.029,4330,1995,191.778,58.658,13.295
2019-06-26T18:36:51,42.805,6.029,4330,1995,191.659,58.621,13.295